Regional Weather Roundup
Issued by NWS Wakefield, VA

Home | Current Version | Previous Version | Graphics & Text | Print | Product List | Glossary On
Versions: 1 2 3 4 5 6 7 8 9 10 11 12 13 14 15 16 17 18 19 20 21 22 23 24 25 26 27 28 29 30 31 32 33 34 35 36 37 38 39 40 41 42 43 44 45 46 47 48 49 50
000
ASUS41 KAKQ 200010
RWRAKQ

REGIONAL WEATHER ROUNDUP
NATIONAL WEATHER SERVICE WAKEFIELD VA
700 PM EST FRI DEC 19 2014

Note: "fair" indicates few or no clouds below 12,000 feet with no
significant weather and/or obstructions to visibility. * = Denotes
station may not report precipitation (e.g., rain,snow,etc.),
thunder or fog.

VAZ042-051-052>054-056-200100-
NORTHERN VIRGINIA

CITY           SKY/WX    TMP DP  RH WIND       PRES   REMARKS
WASH NATIONAL  CLEAR     39  22  50 NW10      30.22R
DULLES         CLEAR     30  22  72 W7        30.22R
FORT BELVOIR   CLEAR     35  22  59 W2        30.22R
QUANTICO       CLEAR     35  22  58 N6        30.24R
FREDERICKSBRG* CLEAR     37  25  64 NW6       30.21R
STAFFORD*      CLEAR     34  22  61 N10       30.26R
WARRENTON      CLEAR     33  28  80 NW7       30.21R
CULPEPER*      CLEAR     34  25  69 N5        30.22R
MANASSAS*      CLEAR     34  25  69 SW5       30.22R
LEESBURG*      CLEAR     32  27  80 NW5       30.22R
WINCHESTER     CLEAR     32  19  59 W7        30.22R
FRONT ROYAL*   CLEAR     30  23  74 CALM      30.22R
LURAY*         CLEAR     30  27  86 CALM      30.22R
$$

VAZ048-049-060>072-079>083-200100-
CENTRAL AND SOUTH CENTRAL VIRGINIA

CITY           SKY/WX    TMP DP  RH WIND       PRES   REMARKS
RICHMOND       MOCLDY    36  24  62 NE6       30.21R
CHESTERFIELD*  FAIR      32  16  51 CALM      30.21R
PETERSBURG*    FAIR      31  28  91 CALM      30.20R
HANOVER        CLEAR     32  24  72 CALM      30.22R
TAPPAHANNOCK*  CLEAR     35  21  56 CALM      30.22R
QUINTON*       CLEAR     35  26  68 CALM      30.21R
CHARLOTTSVILLE CLEAR     35  22  58 N3        30.19R
GORDONSVILLE*  CLEAR     32  23  70 NE3       30.19S
ORANGE*        CLEAR     32  27  80 CALM      30.21S
LOUISA*        CLEAR     30  25  80 CALM      30.19R
BUMPASS*       CLEAR     35  24  63 CALM      30.20R
FARMVILLE*     PTCLDY    34  21  58 CALM      30.17S
CREWE*         PTCLDY    32  26  78 CALM      30.18R
FORT PICKETT*  PTCLDY    36  26  68 NE3       30.18R
CHASE CITY*    PTCLDY    36  31  83 CALM      30.17S
CLARKSVILLE*   PTCLDY    37  30  75 CALM      30.17R
SOUTH HILL*    PTCLDY    32  28  86 CALM      30.24R
LAWRENCEVILLE* PTCLDY    35  31  86 CALM      30.19R
EMPORIA*       FAIR      32  28  86 CALM      30.22R
$$

VAZ088>098-200100-
SOUTHEAST VIRGINIA

CITY           SKY/WX    TMP DP  RH WIND       PRES   REMARKS
NORFOLK        PTCLDY    38  29  70 NE6       30.20R
VIRGINIA BEACH MOCLDY    36  28  73 N6        30.20R
NORFOLK NAVAL  PTCLDY    41  30  65 E3        30.22R
WEST POINT*    CLEAR     37  24  59 CALM      30.24R
SALUDA*        FAIR      36  26  66 N5        30.21R
NEWPORT NEWS   CLEAR     38  26  62 N5        30.20R
LANGLEY AFB    CLEAR     37  27  67 N6        30.21R
FORT EUSTIS    CLEAR     38  26  61 N6        30.19R
WILLIAMSBURG*  CLEAR     37  28  70 NE3       30.22R
HR EXEC AP*    PTCLDY    28  25  86 CALM      30.23R
FRANKLIN*      PTCLDY    32  28  86 CALM      30.21R
WAKEFIELD      CLEAR     31  26  82 CALM      30.21R
$$

VAZ020-022-025-037-045-200100-
WEST CENTRAL AND SOUTHWEST VIRGINIA

CITY           SKY/WX    TMP DP  RH WIND       PRES   REMARKS
STAUNTON*      CLEAR     30  22  72 NE3       30.21R
WAYNESBORO*    CLEAR     30  21  70 CALM      30.18R
HOT SPRINGS VA CLEAR     25  20  83 NW10      30.06R WCI  14
LYNCHBURG      PTCLDY    39  25  57 W3        30.17R
DANVILLE       PTCLDY    39  28  64 CALM      30.18R
SOUTH BOSTON*  PTCLDY    37  27  68 CALM      30.18R
MARTINSVILLE   CLOUDY    38  28  68 CALM      30.19R
ROANOKE        MOCLDY    39  22  50 CALM      30.19R
BLACKSBURG     MOCLDY    33  22  66 W5        30.18R
DUBLIN*        CLOUDY    36  27  70 W5        30.17R
MARION*        CLOUDY    37  23  58 W7        30.18R
HILLSVILLE*    CLOUDY    36  23  60 NW9       30.13S
RICHLANDS*     CLOUDY    33  23  67 NW5       30.16S
WISE*          CLOUDY    32  27  80 N5        30.17R
ABINGDON*      CLOUDY    37  26  66 CALM      30.16S
$$

MDZ021>025-VAZ099-100-200100-
SOUTHERN MARYLAND AND THE DELMARVA PENINSULA

CITY           SKY/WX    TMP DP  RH WIND       PRES   REMARKS
PATUXENT RIVER FAIR      31  22  69 W7        30.20R
BAY BRIDGE APT   N/A     37  25  60 NW9       30.19R
LEONARDTOWN    FAIR      32  23  69 W3        30.22R
DOVER          CLEAR     33  24  68 SW6       30.15R
GEORGETOWN     CLEAR     34  24  67 W3        30.18R
EASTON         CLEAR     36  28  75 CALM      30.22R
CAMBRIDGE      CLEAR     32  27  80 CALM      30.19R
SALISBURY      CLEAR     35  24  64 W5        30.19R
OCEAN CITY     CLEAR     34  24  67 CALM      30.18R
WALLOPS ISLAND CLEAR     34  25  69 W3        30.20R
ACCOMACK*      CLEAR     34  27  75 NW5       30.20R
$$

NCZ012>017-030>032-200100-
NORTH CENTRAL AND EASTERN NORTH CAROLINA

CITY           SKY/WX    TMP DP  RH WIND       PRES   REMARKS
ROANOKE RAPIDS PTCLDY    32  30  93 CALM      30.20R
RALEIGH        CLOUDY    42  29  59 CALM      30.18R
ELIZABETH CITY CLEAR     41  31  67 E3        30.20R
AHOSKIE*       CLEAR     33  29  87 CALM      30.20S
EDENTON*         N/A     36  31  82 CALM      30.20R
CURRITUCK*     CLEAR     37  30  75 CALM      30.21R
KILL DEVIL HLS CLEAR     40  32  73 CALM      30.18R
MANTEO         CLEAR     39  32  75 N3        30.20R
CAPE HATTERAS  PTCLDY    42  35  76 VRB3      30.19R
TARBORO*       CLOUDY    36  34  93 CALM      30.21R
GOLDSBORO      CLOUDY    41  40  94 CALM      30.17R
WASHINGTON     CLOUDY    39  32  76 CALM      30.19S
GREENVILLE     CLOUDY    39  34  81 CALM      30.20R
NEW BERN       MOCLDY    43  33  68 CALM      30.20R
WILMINGTON     MOCLDY    46  36  68 NE3       30.16R
$$

VAZ048-200100-
ELSEWHERE

CITY           SKY/WX    TMP DP  RH WIND       PRES   REMARKS
HARRISBURG PA  FAIR      33  20  58 NW8       30.17S
BALTIMORE      CLEAR     32  22  66 W7        30.18R
ANNAPOLIS      CLEAR     37  23  56 W6        30.19R
ANDREWS AFB    CLEAR     36  22  58 NW8       30.20R
PHILADELPHIA   CLEAR     36  21  54 N12       30.18R
HENDERSON NC   CLOUDY    37  29  70 CALM      30.18R
GREENSBORO     MOCLDY    45  25  45 N5        30.15R
ROCKY MOUNT    CLOUDY    39  32  76 CALM      30.20R
$$

VAZ100-200100-
MARINE

STATION/POSITION TIME  TEMP    WIND        PRES    WAVE   SWELL
                       AIR SEA DIR/SP/G            HT/PER HT/PER
                 (UTC) (F)     (DEG/KT/KT) (MB)    (FT/S) (FT/S)
CAPE MAY NJ      0000   39 42  310/ 10/ 12 1021.0R
LEWES DE         0000   36 42  270/  7/  9 1021.5R
15NM E FENWICK I 0000   39 47              1020.9R   3/ 5
OCEAN-CITY-INLET 0000   36 45  310/  5/  6 1021.3R
WACHAPREAGUE VA  0000   35 44  310/  1/  3 1022.4R
THOMAS POINT MD  0000   38 41  300/  9/ 11 1023.6R
GOOSES REEF MD   0000   38     VRB 10/ 12  1021.6R
COVE POINT MD    0000   36     320/  9/ 10 1022.5R
SOLOMONS ISLAND  0000      43                N/A
BISHOPS HEAD MD  0000   36 38  320/  5/  7 1022.0R
POTOMAC MD       0000   40     330/ 12/ 14 1021.8R
CAMBRIDGE MD     0000   37 40  270/  5/  7 1022.2R
LEWISETTA VA     0000          310/  7/  8 1022.7R
RAPPAHANNOCK LGT 0000          330/ 17/ 18 1022.9R
STINGRAY PT      0000   39     340/ 12/ 14 1023.2R
YORK RVR RNG VA  0000   40      10/ 14/ 15 1022.0R
YORKTOWN VA      0000   39 45  360/  7/  8 1022.5R
JAMESTOWN VA     0000   38      50/  6/ 10   N/A
DOMINION TERM VA 0000   41      50/  4/  5 1022.7R
KIPTOPEKE VA     0000      49   60/  3/  4   N/A
CHES BAY BRIDGE  0000   40 46   40/  7/  8 1022.2R
CAPE HENRY VA    0000   39      10/ 11/ 13 1021.4R
CHESAPEAKE LGHT  2300   40     360/ 14/ 16 1022.4R
WILLOUBY STN VA  0000   41     360/  7/  8 1023.0R
S CRANEY ISL VA  0000           50/  6/  6 1022.5R
CAPE HENRY BUOY  0000      48                N/A     3/ 5
1ST LANDING BUOY 0000   40      20/ 10/ 14 1022.0R
CAPE CHARLES BUO 0000      48                N/A     2/ 4   2/12
64NM E OF VA BCH 0000   42 54  340/ 16/ 19 1021.4R   4/ 5
DUCK PIER NC     0000   42 47   10/  9/ 11 1021.6R
44100 DUCK FRF   2300      51                N/A     3/ 6
44056 DUCK FRF   0000      47                N/A     3/ 6
OREGON INLET NC  0000   41 50  330/  4/  5 1022.2R
HATTERAS NC      0000   44 53   40/  6/  9 1022.6R
DIAMOND SHLS NC  0000   46                 1022.3R   3/ 7
CAPE LOOKOUT NC  2300   47      20/  8/  9 1021.5R
$$



USA.gov is the U.S. government's official web portal to all federal, state and local government web resources and services.